817  
ASUS46 KPDT 111325  
RWRPDT  
PENDLETON REGIONAL WEATHER ROUNDUP  
NATIONAL WEATHER SERVICE PENDLETON OREGON  
600 AM PDT SUN APR 11 2021  
 
NOTE: FAIR INDICATES FEW OR NO CLOUDS BELOW 12,000 FEET WITH NO  
SIGNIFICANT WEATHER AND/OR S TO VISIBILITY
.  
 
# INDICATES UNOFFICIAL STATION AND DATA  
 
WAZ520-111410-  
EAST SLOPES OF WASHINGTON CASCADES  
 
CITY SKY/WX TMP DP RH WIND PRES REMARKS
 
#BULLFROG N/A 23 21 92 CALM N/A  
#EASTON DOT N/A 21 20 96 CALM N/A  
#ELK HTS DOT N/A 24 23 96 CALM N/A  
#GLENWOOD N/A 17 15 92 CALM 30.35R  
#NELSON 3SW N/A 21 17 84 CALM 30.55R  
#NILE N/A 22 19 88 CALM 29.60R  
#TROUT LAKE 1NE N/A 23 21 92 CALM 30.33R  
#TROUT LAKE 1E N/A 20 18 92 CALM 30.28R  

 
 
WAZ521-111410-  
SIMCOE HIGHLANDS  
 
CITY SKY/WX TMP DP RH WIND PRES REMARKS
 
#SATUS PASS DOT N/A 23 17 77 NE1 N/A  
#CENTERVILLE 1SWN/A 16 12 84 CALM 30.31R  
#LYLE 6NE N/A 29 25 85 CALM 30.32R  
#PITT 4SE N/A 27 24 88 CALM 30.35R  

 
 
WAZ026-111410-  
KITTITAS VALLEY  
 
CITY SKY/WX TMP DP RH WIND PRES REMARKS
 
ELLENSBURG AP FAIR 27 15 60 CALM 30.27R  
#ELLENSBURG CWU N/A 27 19 71 NW1 30.27R  
#ELLENSBURG 3NE N/A 21 13 71 NE2 28.33R  
#ELLENSBURG 1E N/A 21 14 74 CALM 30.36R  
#KITTITAS 3S N/A 23 17 77 CALM 30.33R  
#MANASTASH RDG N/A 25 17 71 NW5 N/A  
#ROCKY CYN DOT N/A 26 23 88 W9 N/A  
#RYEGRASS DOT N/A 24 15 68 SW8 N/A  

 
 
WAZ027-111410-  
YAKIMA VALLEY  
 
CITY SKY/WX TMP DP RH WIND PRES REMARKS
 
SUNNYSIDE AP FAIR 23 16 74 NE3 30.32R  
YAKIMA AIRPORT FAIR 22 14 71 W7 30.30R  
YAKIMA-VAGABOND FAIR 27 15 60 E7 30.27R  
#MABTON N/A 28 21 75 CALM 30.30R  
#NACHES 2SW N/A 30 20 66 W7 30.24R  
#OUTLOOK DOT N/A 27 20 74 CALM N/A  
#PARKER DOT N/A 35 18 49 SE3 N/A  
#TERRACE HTS N/A 26 18 71 CALM 30.30R  
#TOPPENISH N/A 32 21 63 CALM 30.24R  
#I82 S UMTANUM RN/A 28 18 66 N9 N/A  
#UNION GAP DOT N/A 25 19 78 NE1 N/A  
#ZILLAH DOT N/A 31 20 63 NW2 N/A  

 
 
WAZ028-111410-  
LOWER COLUMBIA BASIN...WASHINGTON  
 
CITY SKY/WX TMP DP RH WIND PRES REMARKS
 
HANFORD CLEAR 33 15 47 W10 30.25  
PASCO FAIR 24 20 84 CALM 30.33R  
PROSSER AWOS N/A 23 19 84 CALM 30.35R  
RICHLAND AWOS FAIR 28 21 75 CALM 30.33R  
#BASIN CITY 5SW N/A 28 19 68 CALM 30.27R  
#BENTON CITY N/A 28 18 66 CALM 30.23R  
#CONNELL 5N N/A 16 12 84 CALM 30.32R  
#CONNELL 5NW N/A 21 15 77 CALM 30.27R  
#ELTOPIA 6NW N/A 30 21 69 CALM 29.26R  
#KAHLOTUS N/A 26 18 71 N5 30.30R  
#KENNEWICK 3S N/A 30 15 53 CALM 30.33R  
#PROSSER DOT N/A 26 22 85 CALM N/A  
#SAGEMOOR 2W N/A 30 22 72 CALM 30.18R  
#TOUCHET 2S N/A 23 19 84 CALM 30.32R  

 
 
WAZ029-111410-  
FOOTHILLS OF THE BLUES...WASHINGTON  
 
CITY SKY/WX TMP DP RH WIND PRES REMARKS
 
WALLA WALLA AP FAIR 29 17 60 SE6 30.28R  
#CLYDE 6NW N/A 20 14 77 CALM 30.29R  
#DELANEY DOT N/A 23 16 74 CALM N/A  
#LOWDEN 2SE N/A 22 17 81 CALM 30.29R  
#PRESCOTT N/A 18 13 80 CALM 30.32R  
#WHITMAN MISSIONN/A 25 19 78 CALM 30.28R  

 
 
WAZ030-111410-  
BLUE MOUNTAINS...WASHINGTON  
 
CITY SKY/WX TMP DP RH WIND PRES REMARKS
 

 
 
ORZ009-041-WAZ024-111410-  
COLUMBIA RIVER GORGE  
 
CITY SKY/WX TMP DP RH WIND PRES REMARKS
 
HOOD RIVER AP FAIR 30 28 92 MISG 30.34R  
THE DALLES AP FAIR 29 24 81 CALM 30.33R  
#CELILO DOT N/A 36 26 67 SW2 N/A  
#LYLE N/A 32 26 78 N7 30.36R  
#MARYHILL N/A 32 26 78 N3 N/A  
#RUFUS DOT N/A 33 28 82 SE9 N/A  
 

 
 
ORZ510-111410-  
NORTH CENTRAL OREGON  
 
CITY SKY/WX TMP DP RH WIND PRES REMARKS
 
#ANTELOPE N/A 27 20 74 CALM 30.18R  
#COW CYN RST AREN/A 30 19 63 CALM N/A  
#DUFUR N/A 20 16 84 CALM 30.29S  
#DUFUR 9E N/A 32 24 72 SE1 30.37R  
#GRASS VALLEY 1SN/A 24 20 84 S3 30.30R  
#KENT DOT N/A 26 18 71 S3 N/A  
#SHANIKO 5WSW N/A 28 19 68 N2 N/A  
#WAPANITIA AIRPON/A 27 22 81 CALM 30.34R  
#WASCO DOT N/A 19 18 96 E1 N/A  
#WASCO 5NE N/A 27 23 85 SW1 30.31R  

 
 
ORZ511-111410-  
CENTRAL OREGON  
 
CITY SKY/WX TMP DP RH WIND PRES REMARKS
 
BEND AIRPORT CLOUDY 30 21 69 CALM 30.21S  
MADRAS AIRPORT CLOUDY 30 23 75 CALM 30.27R  
PRINEVILLE AP CLOUDY 28 19 68 CALM 30.21R  
REDMOND AIRPORT MOCLDY 31 20 63 N7 30.20F  
#ASHWOOD SCHOOL N/A 27 22 81 CALM 30.19R  
#BEND-KIM LN N/A 30 25 81 CALM 30.21S  
#CULVER N/A 29 22 75 CALM 29.76R  
#PRINEVILLE N/A 30 22 72 CALM 30.34S  
#WARM SPRINGS N/A 28 22 78 CALM 30.16R  
 

 
 
 
ORZ509-111410-  
EAST SLOPES OF OREGON CASCADES  
 
CITY SKY/WX TMP DP RH WIND PRES REMARKS
 
SISTERS AWOS N/A 28 23 81 CALM 30.16S  
SUNRIVER AWOS CLOUDY 27 21 78 N5 30.21R  
#CAMP SHERMAN N/A 25 18 74 CALM 30.37R  
#LAVA BUTTE DOT N/A 26 20 78 CALM N/A  
#SISTERS ODOT N/A 29 22 75 CALM N/A  
#TUMALO 3W N/A 28 20 71 CALM 30.14S  
#WANOGA BUTTE D N/A 19 16 88 NE5 N/A  
 

 
 
ORZ044-111410-  
LOWER COLUMBIA BASIN...OREGON  
 
CITY SKY/WX TMP DP RH WIND PRES REMARKS
 
HERMISTON FAIR 24 19 81 E3 30.32R  
#BOARDMAN SCHOOLN/A 28 23 81 CALM 30.30R  
#ECHO 8SW N/A 29 23 78 CALM 30.32R  
#I-84 EX 198 DOTN/A 32 25 75 NE1 N/A  
#IONE SCHOOL N/A 25 17 71 CALM 30.35R  
#UMATILLA N/A 29 23 78 S2 30.26R  

 
 
ORZ507-111410-  
NORTHERN FOOTHILLS OF THE BLUES  
 
CITY SKY/WX TMP DP RH WIND PRES REMARKS
 
PENDLETON AIRPT MOCLEAR 23 19 84 E3 30.28R  
#ATHENA N/A 18 14 84 CALM 30.35R  
#CAYUSE N/A 30 20 66 E7 30.29S  
#HELIX SCHOOL N/A 17 12 80 CALM 30.32R  
#HELIX 3N N/A 27 21 78 CALM 30.26R  
#HOLDMAN 5SE N/A 20 16 84 SE2 30.27R  
#HOLDMAN 6E N/A 26 21 81 CALM 30.10R  
#M-FREEWATER 5SEN/A 29 18 63 NE5 30.26R  
#PDT SUNRIDGE N/A 22 18 84 CALM 30.26R  
#PENDLETON 6SE N/A 26 20 78 CALM 30.27R  
#TUTUILLA N/A 21 16 81 CALM 30.32R  
#UMAPINE 2E N/A 25 20 81 CALM 30.32R  
#WESTON SCHOOL N/A 28 16 60 S1 30.00R  
 

 
 
ORZ508-111410-  
SOUTHERN FOOTHILLS OF THE BLUES  
 
CITY SKY/WX TMP DP RH WIND PRES REMARKS
 
#HEPPNER EOC N/A 28 22 78 CALM 30.26R  
#OLEX 4N N/A 27 23 85 CALM 30.33R  
#RUGGS 2SW N/A 26 20 78 SW7 30.37R  
 

 
 
ORZ502-503-111410-  
BLUE MOUNTAINS  
 
CITY SKY/WX TMP DP RH WIND PRES REMARKS
 
MEACHAM FAIR 19 12 74 CALM 30.18R  
#BATTLE MTN DOT N/A 23 19 84 CALM N/A  
#LADD CYN SMT N/A 16 14 92 CALM N/A  
#LADD CREEK ODOTN/A 24 11 57 SW8 N/A  
#N POWDER DOT N/A 18 14 84 CALM N/A  
#TOLLGATE N/A 16 13 88 CALM 30.12S  
#TROY SCHOOL N/A 26 22 85 CALM 30.16R  
#WESTON 4E N/A 26 18 71 CALM 30.28R  

 
 
ORZ505-111410-  
JOHN DAY BASIN  
 
CITY SKY/WX TMP DP RH WIND PRES REMARKS
 
JOHN DAY FAIR 26 19 74 CALM 30.20R  
#DAYVILLE SCHOOLN/A 27 17 65 CALM 30.18R  
#MITCHELL 8NW N/A 29 20 69 CALM 30.32R  
#MONUMENT HS N/A 30 21 69 CALM 30.19R  
#MT. VERNON 5SE N/A 22 17 81 CALM 30.18S  
#SPRAY SCHOOL N/A 28 N/A N/A CALM N/A  

 
 
ORZ506-111410-  
OCHOCO AND JOHN DAY HIGHLANDS  
 
CITY SKY/WX TMP DP RH WIND PRES REMARKS
 
#BUCK CREEK DOT N/A 27 14 57 CALM N/A  
#HORSE RIDGE DO N/A 28 19 68 NW6 N/A  
#KEYES SMT DOT N/A 24 18 77 NE5 N/A  
#PAULINA ODOT N/A 31 19 61 E2 N/A  
#PRAIRIE CITY N/A 17 9 70 CALM 30.15R  
#SENECA 9NW N/A 17 14 88 CALM 30.24R  

 
 
ORZ049-111410-  
GRANDE RONDE VALLEY  
 
CITY SKY/WX TMP DP RH WIND PRES REMARKS
 
LA GRANDE FAIR 21 16 81 E3 30.23R  
#COVE SCHOOL N/A 23 16 74 CALM 30.20R  
#COVE 6NW N/A 21 14 74 CALM 30.30R  
#ELGIN 1E N/A 20 14 77 CALM N/A  
#IMBLER SCHOOL N/A 22 16 77 CALM 30.17R  
#ISLAND CITY 4N N/A 29 27 92 CALM 30.36F  
#LADD CYN DOT N/A 26 19 74 SE9 N/A  
#UNION 1S N/A 25 18 74 E1 30.30R  

 
 
ORZ050-111410-  
WALLOWA COUNTY  
 
CITY SKY/WX TMP DP RH WIND PRES REMARKS
 
JOSEPH AIRPORT FAIR 17 10 73 S3 30.16S  
#ENTERPRISE HS N/A 17 13 84 CALM 30.18R  
#IMNAHA SCHOOL N/A 28 23 81 CALM 30.32R  
#JOSEPH 3N N/A 14 11 88 CALM 30.17S  
#LOSTINE N/A 17 13 84 CALM 30.09R  
#LOSTINE 3SE N/A 18 13 80 W1 30.21R  
#WALLOWA SCHOOL N/A 17 14 88 CALM 30.32R  
 

 
 
CLICK HERE TO GO TO PREVIOUS BULLETINS.

The Nexlab OR Page
The Nexlab WA Page Main Text Page